[[{"header":{"parameterUnit":"m.s-1","parameterCategory":2,"la1":30.2991,"la2":30.254,"lo1":-89.0895,"lo2":-89.0444,"dy":0.0017,"dx":0.0017,"nx":28,"ny":28,"refTime":"2025-05-14T21:00:00:Z","depth":"0","parameterNumber":2,"parameterNumberName":"U-component_of_CURRENTS"},"data":[0,0,0,0,0,0,0,0,0,0,0,0,0,0,0,0,0,0,0,0,0,0,0,0,0,0,0,0,0,0,0,0,0,0,0,0,0,0,0,0,0,0,0,0,0,0,0,0,0,0,0,0,0,0,0,0,0,0,-0.235,-0.235,0,-0.236,-0.236,-0.2359,-0.2331,-0.233,-0.233,-0.2329,-0.2285,-0.2284,-0.2283,0,0,0,0,0,0,0,0,0,0,0,0,0,-0.2253,-0.2255,-0.235,-0.235,-0.2351,-0.236,-0.2359,-0.2359,-0.2331,-0.233,-0.233,-0.2329,-0.2285,-0.2284,-0.2283,0,0,0,0,0,0,0,0,0,0,0,0,0,-0.2278,-0.2255,-0.235,-0.2341,-0.2341,-0.236,-0.2359,-0.2359,-0.2331,-0.233,-0.233,-0.2329,-0.2285,-0.2284,-0.2283,-0.229,0,0,-0.228,-0.2279,0,0,0,0,0,0,0,0,-0.2276,-0.2281,-0.2342,-0.2342,-0.2342,-0.2347,-0.2309,-0.2335,-0.2331,-0.233,-0.2329,-0.2329,-0.2304,-0.2302,-0.2299,-0.2288,-0.2286,-0.228,-0.2279,-0.2278,-0.2278,0,0,0,0,0,0,0,-0.2275,-0.228,-0.2349,-0.2343,-0.2343,-0.2319,-0.2322,-0.2313,-0.2316,-0.233,-0.2329,-0.2338,-0.2303,-0.23,-0.2298,-0.2285,-0.228,-0.2279,-0.2278,-0.2277,-0.2278,-0.2279,0,0,0,0,0,0,-0.2287,-0.2279,-0.2349,-0.235,-0.2312,-0.2322,-0.2325,-0.2342,-0.2317,-0.2315,-0.2338,-0.2336,-0.2303,-0.2299,-0.2296,-0.2309,-0.2278,-0.2277,-0.2277,-0.2278,-0.2278,-0.2279,0,0,0,0,0,0,-0.2285,-0.2293,-0.2349,-0.2317,-0.2323,-0.2325,-0.2345,-0.2343,-0.2341,-0.2325,-0.232,-0.2338,-0.2302,-0.2298,-0.2291,-0.2307,-0.2277,-0.2276,-0.2277,-0.2278,-0.2279,-0.233,0,0,0,0,0,0,-0.2282,-0.2293,-0.23,-0.2319,-0.2326,-0.2368,-0.2346,-0.2344,-0.235,-0.2347,-0.2324,-0.2319,-0.2301,-0.2293,-0.229,-0.2305,-0.2275,-0.2276,-0.2277,-0.2278,-0.2328,-0.2333,-0.2338,0,0,0,0,0,-0.2279,-0.2299,-0.2301,-0.2309,-0.234,-0.237,-0.2371,-0.2365,-0.235,-0.2358,-0.2338,-0.232,-0.2299,-0.2293,-0.2289,-0.2304,-0.2275,-0.2277,-0.2278,-0.2326,-0.2332,-0.2338,0,0,0,0,0,0,-0.2257,-0.2299,-0.2301,-0.2332,-0.2353,-0.2367,-0.237,-0.237,-0.236,-0.2351,-0.2327,-0.2322,-0.2322,-0.2307,-0.23,-0.2308,-0.2285,-0.2286,-0.2322,-0.2328,-0.2333,-0.2339,-0.2274,0,0,0,0,0,-0.2259,-0.2282,-0.2319,-0.2337,-0.2352,-0.2361,-0.2368,-0.2371,-0.2372,-0.2366,-0.2352,-0.2335,-0.2327,-0.2322,-0.2311,-0.2316,-0.2294,-0.2324,-0.2329,-0.2333,-0.2335,-0.2325,-0.2329,-0.2284,-0.2284,-0.2284,0,0,-0.2251,-0.2279,-0.2289,-0.2333,-0.2343,-0.2374,-0.2362,-0.2382,-0.2399,-0.2363,-0.2368,-0.2351,-0.2332,-0.2336,-0.2335,-0.2325,-0.2331,-0.2335,-0.2339,-0.2339,-0.2327,-0.2331,-0.2335,-0.2285,-0.2285,-0.2285,0,0,-0.2253,-0.2278,-0.2299,-0.2328,-0.2362,-0.2376,-0.2387,-0.2409,-0.241,-0.242,-0.2397,-0.239,-0.2378,-0.2371,-0.2365,-0.2391,-0.2357,-0.2388,-0.2419,-0.2409,-0.2412,-0.2415,-0.2381,-0.2381,-0.2392,-0.2392,-0.2392,0,-0.2238,-0.2277,-0.2307,-0.2342,-0.2362,-0.2382,-0.241,-0.2426,-0.2439,-0.2439,-0.2427,-0.2412,-0.2396,-0.2403,-0.2412,-0.2403,-0.2382,-0.2398,-0.2415,-0.2418,-0.242,-0.2384,-0.2383,-0.2395,-0.2394,-0.2394,-0.2394,0,-0.2262,-0.2294,-0.2311,-0.2362,-0.2391,-0.2417,-0.2457,-0.2474,-0.2474,-0.2482,-0.2486,-0.2469,-0.2456,-0.2458,-0.2442,-0.2454,-0.2428,-0.2422,-0.2401,-0.2427,-0.2388,-0.2386,-0.2399,-0.2398,-0.2397,-0.2396,0,0,-0.2215,-0.2308,-0.231,-0.2336,-0.2403,-0.2426,-0.2469,-0.2503,-0.2518,-0.2528,-0.2536,-0.2533,-0.2518,-0.251,-0.2495,-0.2492,-0.2486,-0.2467,-0.2465,-0.2434,-0.2445,-0.23,-0.2283,-0.2483,-0.2483,-0.2483,-0.2408,0,-0.2213,-0.2273,-0.2326,-0.2373,-0.2404,-0.2453,-0.249,-0.2525,-0.2543,-0.2559,-0.2555,-0.2555,-0.2543,-0.2533,-0.2532,-0.25,-0.2484,-0.2505,-0.2423,-0.2421,-0.2289,-0.2277,-0.2163,-0.2075,-0.2405,-0.2405,-0.2405,0,-0.2208,-0.2251,-0.23,-0.2377,-0.2395,-0.2426,-0.2477,-0.2518,-0.256,-0.2573,-0.2585,-0.2581,-0.2583,-0.2565,-0.2529,-0.2543,-0.2496,-0.2469,-0.2465,-0.231,-0.2271,-0.2104,-0.2058,-0.2062,-0.2401,-0.2401,-0.2401,0,-0.2141,-0.2227,-0.2258,-0.2287,-0.2382,-0.2401,-0.2443,-0.2501,-0.2539,-0.2576,-0.2592,-0.2599,-0.2583,-0.256,-0.2492,-0.2518,-0.2428,-0.2456,-0.2279,-0.2268,-0.2143,-0.2119,-0.2089,-0.2418,-0.2418,-0.2418,-0.2419,0,-0.2115,-0.2136,-0.2225,-0.2243,-0.2278,-0.2355,-0.2395,-0.2443,-0.2511,-0.2509,-0.2583,-0.2558,-0.2581,-0.253,-0.2489,-0.2349,-0.2418,-0.227,-0.2236,-0.2154,-0.2133,-0.2107,-0.2157,-0.2416,-0.2416,-0.2417,-0.2417,0,-0.203,-0.2098,-0.2136,-0.2223,-0.2249,-0.2266,-0.2372,-0.238,-0.2476,-0.2474,-0.2484,-0.2529,-0.2431,-0.242,-0.2346,-0.2308,-0.217,-0.2143,-0.2026,-0.1979,-0.1827,-0.1884,-0.1824,-0.1772,-0.1963,-0.1959,-0.1956,0,-0.1989,-0.1998,-0.2091,-0.2088,-0.212,-0.2173,-0.2187,-0.2329,-0.2335,-0.2403,-0.2361,-0.2329,-0.2224,-0.2102,-0.2005,-0.1895,-0.1957,-0.1764,-0.1793,-0.1781,-0.1823,-0.1895,-0.1863,-0.1655,-0.1649,-0.1644,-0.1641,0,-0.189,-0.1923,-0.1953,-0.1945,-0.1958,-0.1996,-0.2027,-0.2055,-0.2154,-0.2168,-0.21,-0.2045,-0.1922,-0.175,-0.1643,-0.1577,-0.1735,-0.1661,-0.1696,-0.1602,-0.1636,-0.158,-0.1742,-0.1599,-0.1604,-0.1607,-0.1609,-0.161,-0.1789,-0.1778,-0.179,-0.1772,-0.1782,-0.1747,-0.1718,-0.1733,-0.1732,-0.1669,-0.1755,-0.1601,-0.1594,-0.1406,-0.1339,-0.1244,-0.1362,-0.1262,-0.1338,-0.1417,-0.1345,-0.1387,-0.1174,-0.1176,-0.1177,-0.1179,-0.118,0,-0.1645,-0.1629,-0.1592,-0.1568,-0.1494,-0.1562,-0.1539,-0.1467,-0.1355,-0.1305,-0.1237,-0.1151,-0.106,-0.1064,-0.1019,-0.0982,-0.1012,-0.1002,-0.1122,-0.1109,-0.1167,-0.1128,-0.0838,-0.0838,-0.0838,-0.0838,-0.0838,-0.0838,-0.1567,-0.1489,-0.1468,-0.1289,-0.1248,-0.1123,-0.1077,-0.0973,-0.0907,-0.072,-0.0621,-0.0602,-0.0772,-0.0992,-0.0985,-0.0933,-0.0987,-0.0938,-0.1011,-0.1108,-0.1141,-0.1173,-0.1147,-0.0866,-0.0866,-0.0896,-0.0897,-0.0897]},{"header":{"parameterUnit":"m.s-1","parameterCategory":2,"la1":30.2991,"la2":30.254,"lo1":-89.0895,"lo2":-89.0444,"dy":0.0017,"dx":0.0017,"nx":28,"ny":28,"refTime":"2025-05-14T21:00:00:Z","depth":"0","parameterNumber":3,"parameterNumberName":"V-component_of_CURRENTS"},"data":[0,0,0,0,0,0,0,0,0,0,0,0,0,0,0,0,0,0,0,0,0,0,0,0,0,0,0,0,0,0,0,0,0,0,0,0,0,0,0,0,0,0,0,0,0,0,0,0,0,0,0,0,0,0,0,0,0,0,-0.0091,-0.009,0,-0.0006,-0.0004,-0.0003,0.0056,0.0057,0.0057,0.0057,0.0196,0.0199,0.0202,0,0,0,0,0,0,0,0,0,0,0,0,0,-0.0136,-0.0136,-0.0091,-0.009,-0.0089,-0.0006,-0.0004,-0.0003,0.0056,0.0057,0.0057,0.0058,0.0195,0.0199,0.0203,0,0,0,0,0,0,0,0,0,0,0,0,0,-0.009,-0.0136,-0.0091,-0.005,-0.0045,-0.0006,-0.0004,-0.0003,0.0056,0.0057,0.0057,0.0058,0.0193,0.0198,0.0203,0.0222,0,0,0.0218,0.0221,0,0,0,0,0,0,0,0,-0.0093,-0.0088,-0.0057,-0.0053,-0.0048,0.0015,0.0031,0.0075,0.0056,0.0018,0.0057,0.0058,0.0139,0.0149,0.0164,0.0228,0.0234,0.0219,0.0222,0.0224,0.0225,0,0,0,0,0,0,0,-0.0096,-0.0091,-0.0057,-0.0056,-0.005,-0.0013,-0.0006,0.0039,0.0076,0.0022,0.0026,0.0034,0.0142,0.0159,0.0168,0.0236,0.0219,0.0223,0.0226,0.0228,0.0339,0.0339,0,0,0,0,0,0,-0.0112,-0.0095,-0.0059,-0.0054,-0.007,-0.0013,-0.0005,-0.0005,0.0074,0.0086,0.0034,0.0037,0.015,0.0162,0.0173,0.0201,0.0224,0.0229,0.0231,0.0339,0.0339,0.0339,0,0,0,0,0,0,-0.0114,-0.011,-0.0063,-0.0072,-0.0064,-0.0013,-0.0013,-0.0004,0.0013,0.0083,0.0096,0.004,0.0151,0.0166,0.0208,0.0207,0.0231,0.0235,0.0339,0.0339,0.0339,0.0257,0,0,0,0,0,0,-0.0115,-0.0112,-0.012,-0.0074,-0.0064,-0.0049,-0.0014,-0.0003,0.0017,0.0021,0.0093,0.0107,0.0152,0.02,0.0213,0.0214,0.0239,0.0339,0.0339,0.0339,0.0259,0.0254,0.0249,0,0,0,0,0,-0.0118,-0.0138,-0.0121,-0.0116,-0.0076,-0.0049,-0.0041,-0.0001,0.0016,0.0017,0.0066,0.0104,0.0209,0.0204,0.0219,0.0221,0.0339,0.0339,0.0339,0.0262,0.0255,0.0249,0,0,0,0,0,0,-0.0165,-0.0132,-0.0113,-0.0123,-0.009,-0.004,-0.0038,-0.0008,0.003,0.0035,0.0103,0.0119,0.0155,0.0199,0.0192,0.0254,0.0281,0.0284,0.0217,0.0212,0.0206,0.0196,0.0243,0,0,0,0,0,-0.0179,-0.0184,-0.0141,-0.0149,-0.0137,-0.0088,-0.0072,-0.0045,-0.0004,0.0014,0.0065,0.012,0.0167,0.0196,0.0241,0.0275,0.0335,0.0288,0.0283,0.0278,0.028,0.036,0.0362,0.0339,0.0339,0.0339,0,0,-0.0198,-0.0182,-0.0184,-0.0159,-0.0131,-0.0122,-0.0077,-0.0062,-0.0048,0.0023,0.0052,0.0101,0.017,0.0205,0.0226,0.0243,0.0317,0.0278,0.0273,0.0278,0.036,0.0363,0.0365,0.0339,0.0339,0.0339,0,0,-0.0245,-0.0226,-0.0246,-0.0223,-0.019,-0.0155,-0.0154,-0.0106,-0.0079,-0.0046,0.0009,0.0056,0.0125,0.0177,0.0211,0.0207,0.0282,0.022,0.0192,0.0269,0.0272,0.0275,0.0355,0.0366,0.0223,0.0223,0.0223,0,-0.027,-0.0285,-0.0247,-0.0255,-0.0238,-0.0175,-0.0182,-0.0147,-0.009,-0.006,-0.0048,0.0063,0.0113,0.0174,0.0168,0.0196,0.0253,0.0206,0.0262,0.0266,0.0271,0.0353,0.0366,0.0219,0.0219,0.022,0.022,0,-0.0326,-0.0331,-0.0341,-0.0326,-0.0304,-0.03,-0.0243,-0.0214,-0.0172,-0.0126,-0.0064,0.0004,0.0078,0.0095,0.0129,0.0186,0.0221,0.024,0.0274,0.0268,0.0355,0.037,0.0213,0.0215,0.0216,0.0217,0,0,-0.0389,-0.0383,-0.0384,-0.0384,-0.0339,-0.0326,-0.0296,-0.0243,-0.021,-0.0155,-0.0107,-0.0038,0.0011,0.0054,0.0108,0.0167,0.0242,0.0208,0.0214,0.0281,0.0419,0.0461,0.0482,0.0269,0.0271,0.0273,0.0468,0,-0.044,-0.048,-0.045,-0.0463,-0.0472,-0.0397,-0.0367,-0.0306,-0.0242,-0.018,-0.0097,-0.0033,-0.0006,0.0034,0.0092,0.0213,0.0278,0.0188,0.0422,0.0429,0.0461,0.0499,0.0541,0.0719,0.0483,0.0485,0.0487,0,-0.0498,-0.0515,-0.0552,-0.0521,-0.0514,-0.0505,-0.0429,-0.0393,-0.0283,-0.0229,-0.0149,-0.007,0.0033,0.0048,0.0245,0.0187,0.0292,0.0376,0.0386,0.0465,0.0498,0.0689,0.0757,0.0919,0.0511,0.0509,0.0508,0,-0.0564,-0.0575,-0.0607,-0.0601,-0.0562,-0.0548,-0.0511,-0.0413,-0.0357,-0.0252,-0.0177,-0.0069,0.0034,0.015,0.0331,0.0296,0.0555,0.0536,0.0672,0.0677,0.0781,0.0791,0.103,0.067,0.067,0.0669,0.0669,0,-0.0628,-0.0647,-0.0645,-0.0662,-0.0671,-0.0613,-0.0584,-0.0522,-0.0408,-0.0297,-0.0206,-0.0081,0.0068,0.0242,0.0351,0.0579,0.0586,0.0685,0.0736,0.0753,0.0758,0.0957,0.0994,0.0676,0.0675,0.0673,0.0672,0,-0.0693,-0.0697,-0.0729,-0.0715,-0.071,-0.0715,-0.0636,-0.0583,-0.0471,-0.0317,-0.0269,-0.0058,0.0172,0.033,0.0564,0.0651,0.0934,0.0901,0.0911,0.0957,0.1186,0.1214,0.1472,0.1588,0.1069,0.1071,0.1073,0,-0.073,-0.0762,-0.0782,-0.0786,-0.0783,-0.0773,-0.0734,-0.064,-0.0542,-0.0268,-0.0167,0.0076,0.0285,0.0615,0.0788,0.0995,0.1088,0.1161,0.1086,0.1229,0.1299,0.1299,0.1378,0.1202,0.1205,0.1207,0.1209,0,-0.0789,-0.0799,-0.0816,-0.0828,-0.0817,-0.0806,-0.0728,-0.0661,-0.0463,-0.0286,0.0005,0.0181,0.0509,0.0772,0.1016,0.1128,0.1276,0.1213,0.1379,0.1439,0.1443,0.1569,0.1042,0.1229,0.1227,0.1226,0.1225,0.1224,-0.0808,-0.083,-0.0836,-0.0841,-0.0831,-0.0785,-0.0744,-0.0591,-0.0413,-0.0067,0.0097,0.0438,0.0782,0.1117,0.1246,0.1536,0.1465,0.1618,0.1649,0.1643,0.1731,0.124,0.1461,0.1461,0.146,0.1459,0.1459,0,-0.0818,-0.0823,-0.0827,-0.0826,-0.0805,-0.0804,-0.0682,-0.0581,-0.0336,0.0012,0.0292,0.081,0.1157,0.1448,0.181,0.1973,0.1991,0.2061,0.2091,0.2158,0.1765,0.1746,0.2018,0.2018,0.2018,0.2017,0.2017,0.2017,-0.0811,-0.0822,-0.0818,-0.0788,-0.0778,-0.0721,-0.0651,-0.0468,-0.0226,0.0274,0.0658,0.0953,0.1394,0.1963,0.2359,0.2393,0.2567,0.2514,0.2628,0.2358,0.2319,0.2282,0.2278,0.2657,0.2658,0.3028,0.3031,0.3034]}],[{"header":{"parameterUnit":"m.s-1","parameterCategory":2,"la1":30.2991,"la2":30.254,"lo1":-89.0895,"lo2":-89.0444,"dy":0.0017,"dx":0.0017,"nx":28,"ny":28,"refTime":"2025-05-14T21:00:00:Z","depth":"2","parameterNumber":2,"parameterNumberName":"U-component_of_CURRENTS"},"data":[0,0,0,0,0,0,0,0,0,0,0,0,0,0,0,0,0,0,0,0,0,0,0,0,0,0,0,0,0,0,0,0,0,0,0,0,0,0,0,0,0,0,0,0,0,0,0,0,0,0,0,0,0,0,0,0,0,0,-0.2318,-0.2318,0,-0.2332,-0.2332,-0.2332,-0.2308,-0.2308,-0.2307,-0.2307,-0.2268,-0.2267,-0.2267,0,0,0,0,0,0,0,0,0,0,0,0,0,-0.2223,-0.2225,-0.2318,-0.2318,-0.2319,-0.2332,-0.2332,-0.2332,-0.2308,-0.2308,-0.2307,-0.2307,-0.2268,-0.2267,-0.2267,0,0,0,0,0,0,0,0,0,0,0,0,0,-0.225,-0.2225,-0.2318,-0.2312,-0.2312,-0.2332,-0.2332,-0.2332,-0.2308,-0.2308,-0.2307,-0.2306,-0.2268,-0.2267,-0.2267,-0.2274,0,0,-0.2264,-0.2263,0,0,0,0,0,0,0,0,-0.2248,-0.2252,-0.2312,-0.2312,-0.2312,-0.2321,-0.2285,-0.2311,-0.2309,-0.2305,-0.2307,-0.2306,-0.2284,-0.2282,-0.2281,-0.2272,-0.227,-0.2264,-0.2263,-0.2263,-0.2262,0,0,0,0,0,0,0,-0.2246,-0.2252,-0.2319,-0.2313,-0.2313,-0.2293,-0.2296,-0.2289,-0.2294,-0.2305,-0.2305,-0.2313,-0.2283,-0.2282,-0.228,-0.227,-0.2264,-0.2263,-0.2262,-0.2262,-0.2269,-0.227,0,0,0,0,0,0,-0.2257,-0.225,-0.2319,-0.232,-0.2283,-0.2295,-0.2299,-0.2316,-0.2295,-0.2293,-0.2314,-0.2312,-0.2284,-0.2281,-0.2278,-0.2294,-0.2263,-0.2262,-0.2261,-0.2268,-0.2269,-0.227,0,0,0,0,0,0,-0.2255,-0.2263,-0.2318,-0.2288,-0.2294,-0.2299,-0.2317,-0.2316,-0.2317,-0.2303,-0.2299,-0.2316,-0.2283,-0.2279,-0.2277,-0.2292,-0.2261,-0.226,-0.2267,-0.2269,-0.227,-0.232,0,0,0,0,0,0,-0.2252,-0.2262,-0.227,-0.2289,-0.2297,-0.234,-0.2319,-0.2317,-0.2325,-0.2323,-0.2303,-0.2299,-0.2282,-0.2278,-0.2276,-0.229,-0.226,-0.2266,-0.2268,-0.2269,-0.2317,-0.2323,-0.2327,0,0,0,0,0,-0.2249,-0.2269,-0.2271,-0.2279,-0.2311,-0.2341,-0.2342,-0.2339,-0.2326,-0.2335,-0.2318,-0.23,-0.2285,-0.2278,-0.2275,-0.2289,-0.2266,-0.2267,-0.2269,-0.2315,-0.2322,-0.2327,0,0,0,0,0,0,-0.2229,-0.227,-0.2272,-0.2302,-0.2324,-0.2339,-0.2344,-0.2344,-0.2338,-0.2331,-0.2309,-0.2304,-0.2307,-0.2293,-0.2285,-0.2296,-0.2273,-0.2274,-0.2309,-0.2315,-0.232,-0.2325,-0.2259,0,0,0,0,0,-0.2231,-0.2254,-0.229,-0.2309,-0.2324,-0.2333,-0.2342,-0.2346,-0.2349,-0.2345,-0.2333,-0.2319,-0.2313,-0.2309,-0.23,-0.2307,-0.2286,-0.2315,-0.232,-0.2324,-0.2326,-0.2315,-0.2319,-0.2276,-0.2276,-0.2276,0,0,-0.2225,-0.2251,-0.2261,-0.2305,-0.2317,-0.2347,-0.2336,-0.2358,-0.2376,-0.2342,-0.235,-0.2335,-0.2318,-0.2325,-0.2325,-0.2314,-0.2324,-0.2326,-0.233,-0.233,-0.2317,-0.2321,-0.2325,-0.2277,-0.2277,-0.2276,0,0,-0.2229,-0.2253,-0.2275,-0.2304,-0.2338,-0.2352,-0.2363,-0.2386,-0.2389,-0.2402,-0.238,-0.2376,-0.2367,-0.2361,-0.2355,-0.2383,-0.235,-0.2381,-0.2411,-0.24,-0.2404,-0.2406,-0.2377,-0.2377,-0.2384,-0.2385,-0.2385,0,-0.2216,-0.2256,-0.2284,-0.2319,-0.234,-0.2359,-0.2388,-0.2404,-0.242,-0.2421,-0.241,-0.24,-0.2385,-0.2393,-0.2403,-0.2395,-0.2375,-0.239,-0.2407,-0.2409,-0.2411,-0.238,-0.2379,-0.2387,-0.2387,-0.2387,-0.2386,0,-0.2243,-0.2275,-0.2293,-0.2343,-0.2372,-0.24,-0.2438,-0.2456,-0.2458,-0.2466,-0.2472,-0.2457,-0.2446,-0.2448,-0.2433,-0.2445,-0.2422,-0.2413,-0.2391,-0.2418,-0.2384,-0.2382,-0.2391,-0.239,-0.2389,-0.2389,0,0,-0.2199,-0.2291,-0.2294,-0.2321,-0.2387,-0.241,-0.2453,-0.2488,-0.2502,-0.2515,-0.2523,-0.2523,-0.2508,-0.2501,-0.2486,-0.2483,-0.2477,-0.2458,-0.2456,-0.2428,-0.2439,-0.2303,-0.2287,-0.2472,-0.2473,-0.2473,-0.2407,0,-0.2201,-0.2263,-0.2314,-0.2364,-0.2396,-0.2442,-0.2478,-0.2513,-0.253,-0.2546,-0.2543,-0.2544,-0.2532,-0.2523,-0.2522,-0.249,-0.2476,-0.2495,-0.2418,-0.2415,-0.229,-0.2281,-0.213,-0.2047,-0.2405,-0.2404,-0.2404,0,-0.2199,-0.2243,-0.2294,-0.2372,-0.239,-0.2422,-0.2471,-0.2511,-0.255,-0.2563,-0.2574,-0.257,-0.2573,-0.2554,-0.252,-0.2533,-0.2488,-0.2463,-0.2459,-0.2312,-0.2274,-0.208,-0.203,-0.24,-0.2401,-0.2401,-0.2401,0,-0.2135,-0.2223,-0.2258,-0.2286,-0.2381,-0.24,-0.2442,-0.2496,-0.2533,-0.2567,-0.2583,-0.2589,-0.2577,-0.2552,-0.2489,-0.251,-0.2431,-0.2452,-0.2286,-0.2276,-0.2119,-0.2093,-0.2416,-0.2416,-0.2416,-0.2416,-0.2416,0,-0.2112,-0.2136,-0.2227,-0.2246,-0.2283,-0.2359,-0.2398,-0.2444,-0.2509,-0.2511,-0.2577,-0.2558,-0.2576,-0.253,-0.2488,-0.2357,-0.2423,-0.2278,-0.2246,-0.213,-0.2107,-0.2396,-0.2395,-0.2414,-0.2414,-0.2415,-0.2415,0,-0.203,-0.2099,-0.2139,-0.2228,-0.2255,-0.2274,-0.2379,-0.239,-0.248,-0.2483,-0.2492,-0.2538,-0.2451,-0.2437,-0.2366,-0.2324,-0.2236,-0.2168,-0.2016,-0.1966,-0.2097,-0.2099,-0.2004,-0.1999,-0.1994,-0.199,-0.1987,0,-0.1991,-0.2001,-0.2097,-0.2099,-0.2133,-0.2188,-0.2208,-0.2343,-0.2355,-0.2423,-0.239,-0.2364,-0.2269,-0.2153,-0.2047,-0.1935,-0.2048,-0.1768,-0.178,-0.2074,-0.2054,-0.2063,-0.2072,-0.1599,-0.1593,-0.1588,-0.1584,0,-0.1893,-0.1926,-0.1959,-0.1971,-0.1991,-0.2026,-0.2065,-0.2097,-0.2196,-0.2229,-0.218,-0.2128,-0.1991,-0.1797,-0.168,-0.1608,-0.1783,-0.1658,-0.1997,-0.1718,-0.1684,-0.1667,-0.169,-0.1539,-0.1544,-0.1547,-0.1549,-0.1551,-0.1795,-0.1785,-0.1812,-0.1819,-0.1829,-0.1797,-0.1781,-0.182,-0.1846,-0.1839,-0.1885,-0.1748,-0.1735,-0.1427,-0.1336,-0.127,-0.1398,-0.1394,-0.1414,-0.1438,-0.1394,-0.1352,-0.1136,-0.1138,-0.114,-0.1142,-0.1143,0,-0.1653,-0.1656,-0.1641,-0.1642,-0.1583,-0.163,-0.1622,-0.1591,-0.1541,-0.1527,-0.1485,-0.1288,-0.1149,-0.1118,-0.0929,-0.092,-0.096,-0.0908,-0.0981,-0.1023,-0.1062,-0.1004,-0.0641,-0.064,-0.0638,-0.0637,0,0,-0.1577,-0.1515,-0.1518,-0.1395,-0.1368,-0.1248,-0.1202,-0.1165,-0.1133,-0.1065,-0.098,-0.1046,-0.1037,-0.0822,-0.0801,-0.0677,-0.0842,-0.0638,-0.1036,-0.1158,-0.1195,-0.1328,-0.1283,0,0,0,0,0]},{"header":{"parameterUnit":"m.s-1","parameterCategory":2,"la1":30.2991,"la2":30.254,"lo1":-89.0895,"lo2":-89.0444,"dy":0.0017,"dx":0.0017,"nx":28,"ny":28,"refTime":"2025-05-14T21:00:00:Z","depth":"2","parameterNumber":3,"parameterNumberName":"V-component_of_CURRENTS"},"data":[0,0,0,0,0,0,0,0,0,0,0,0,0,0,0,0,0,0,0,0,0,0,0,0,0,0,0,0,0,0,0,0,0,0,0,0,0,0,0,0,0,0,0,0,0,0,0,0,0,0,0,0,0,0,0,0,0,0,-0.0167,-0.0166,0,-0.008,-0.0079,-0.0078,-0.0021,-0.0021,-0.0021,-0.002,0.0116,0.0119,0.0122,0,0,0,0,0,0,0,0,0,0,0,0,0,-0.0216,-0.0216,-0.0167,-0.0166,-0.0165,-0.008,-0.0079,-0.0078,-0.0021,-0.0021,-0.0021,-0.002,0.0115,0.0119,0.0123,0,0,0,0,0,0,0,0,0,0,0,0,0,-0.0169,-0.0216,-0.0167,-0.0127,-0.0122,-0.0081,-0.0079,-0.0077,-0.0021,-0.0021,-0.002,-0.002,0.0113,0.0118,0.0123,0.0144,0,0,0.0138,0.0141,0,0,0,0,0,0,0,0,-0.0171,-0.0167,-0.0134,-0.013,-0.0125,-0.0062,-0.0047,-0.0001,-0.0022,-0.0059,-0.002,-0.002,0.006,0.007,0.0085,0.0151,0.0157,0.0139,0.0142,0.0144,0.0145,0,0,0,0,0,0,0,-0.0175,-0.017,-0.0132,-0.0133,-0.0127,-0.009,-0.0083,-0.0038,-0.0002,-0.0056,-0.0052,-0.0043,0.0063,0.008,0.0089,0.0159,0.0139,0.0143,0.0146,0.0148,0.0264,0.0264,0,0,0,0,0,0,-0.0191,-0.0173,-0.0135,-0.013,-0.0148,-0.009,-0.0082,-0.0082,-0.0003,0.0009,-0.0044,-0.0041,0.0071,0.0083,0.0094,0.0127,0.0144,0.0149,0.0152,0.0264,0.0264,0.0264,0,0,0,0,0,0,-0.0192,-0.0189,-0.0138,-0.0149,-0.014,-0.009,-0.009,-0.008,-0.0063,0.0005,0.0019,-0.0036,0.0072,0.0087,0.0131,0.0133,0.0151,0.0155,0.0264,0.0264,0.0264,0.0191,0,0,0,0,0,0,-0.0194,-0.019,-0.0197,-0.0151,-0.014,-0.0121,-0.009,-0.0079,-0.0059,-0.0054,0.0017,0.003,0.0074,0.0123,0.0136,0.014,0.0159,0.0264,0.0264,0.0264,0.0194,0.0189,0.0185,0,0,0,0,0,-0.0197,-0.0214,-0.0198,-0.0193,-0.0152,-0.0121,-0.0113,-0.0074,-0.0059,-0.0056,-0.0008,0.0027,0.0133,0.0127,0.0142,0.0148,0.0264,0.0264,0.0264,0.0196,0.019,0.0185,0,0,0,0,0,0,-0.0242,-0.0209,-0.019,-0.0197,-0.0163,-0.0112,-0.0109,-0.008,-0.0041,-0.0036,0.0028,0.0044,0.0083,0.0125,0.0116,0.0182,0.0205,0.0208,0.0148,0.0143,0.0139,0.0126,0.0163,0,0,0,0,0,-0.0255,-0.0258,-0.0215,-0.022,-0.0207,-0.0158,-0.0142,-0.0115,-0.0073,-0.0055,-0.0005,0.0049,0.0095,0.0125,0.017,0.0207,0.0259,0.0221,0.0217,0.0213,0.0213,0.0285,0.0288,0.0265,0.0265,0.0265,0,0,-0.0273,-0.0256,-0.0257,-0.0229,-0.0201,-0.0189,-0.0147,-0.0129,-0.0113,-0.0046,-0.0014,0.0033,0.01,0.0138,0.016,0.0175,0.0248,0.0213,0.0209,0.0212,0.0286,0.0288,0.029,0.0265,0.0265,0.0265,0,0,-0.0316,-0.0297,-0.0313,-0.0288,-0.0253,-0.0218,-0.0216,-0.0166,-0.0139,-0.0103,-0.0052,-0.0004,0.0065,0.0116,0.015,0.0152,0.0217,0.0165,0.014,0.021,0.0212,0.0215,0.0284,0.0294,0.0168,0.0168,0.0168,0,-0.034,-0.0351,-0.0312,-0.0317,-0.0299,-0.0236,-0.024,-0.0202,-0.0143,-0.0116,-0.0103,0.0006,0.0057,0.0118,0.0115,0.0142,0.0191,0.0151,0.0203,0.0207,0.0212,0.0282,0.0294,0.0165,0.0165,0.0165,0.0166,0,-0.0389,-0.0392,-0.0399,-0.038,-0.0355,-0.0349,-0.029,-0.0259,-0.0218,-0.0172,-0.0111,-0.0042,0.0028,0.0048,0.0082,0.0137,0.0165,0.0183,0.0212,0.0209,0.0284,0.0298,0.016,0.0161,0.0162,0.0163,0,0,-0.0452,-0.0439,-0.0439,-0.0439,-0.0387,-0.0373,-0.0338,-0.0284,-0.0254,-0.0195,-0.0152,-0.0077,-0.0032,0.001,0.0063,0.0119,0.0187,0.0156,0.0161,0.0217,0.0344,0.0373,0.0391,0.0212,0.0214,0.0216,0.0384,0,-0.0499,-0.0534,-0.05,-0.0508,-0.0515,-0.0439,-0.0407,-0.0345,-0.0282,-0.0224,-0.014,-0.0081,-0.0047,-0.0012,0.0047,0.0157,0.0218,0.014,0.0345,0.0352,0.0372,0.0406,0.0321,0.0465,0.0398,0.04,0.0402,0,-0.0553,-0.0568,-0.06,-0.0569,-0.0561,-0.0548,-0.0475,-0.0437,-0.033,-0.0279,-0.0202,-0.0126,-0.0027,-0.0007,0.0179,0.0127,0.0225,0.0304,0.0313,0.0376,0.0406,0.0459,0.0492,0.0425,0.0423,0.0421,0.042,0,-0.0624,-0.0628,-0.0659,-0.0651,-0.0609,-0.0595,-0.0557,-0.046,-0.0411,-0.031,-0.0247,-0.0137,-0.0045,0.007,0.0246,0.0216,0.0453,0.0439,0.056,0.0563,0.0551,0.055,0.0565,0.0565,0.0565,0.0564,0.0564,0,-0.0687,-0.0705,-0.0699,-0.0716,-0.0729,-0.0665,-0.0643,-0.0581,-0.0475,-0.0374,-0.0283,-0.0175,-0.0018,0.0145,0.0257,0.0468,0.0476,0.057,0.0614,0.0523,0.0518,0.0526,0.0519,0.057,0.0569,0.0568,0.0567,0,-0.0756,-0.0756,-0.079,-0.0774,-0.077,-0.0778,-0.0707,-0.0659,-0.0554,-0.0415,-0.0373,-0.018,0.0039,0.0206,0.0431,0.0517,0.0684,0.0755,0.064,0.0666,0.0739,0.0726,0.0891,0.0894,0.0896,0.0898,0.0899,0,-0.0795,-0.0826,-0.085,-0.0858,-0.0854,-0.085,-0.0815,-0.0725,-0.0639,-0.0388,-0.0302,-0.0075,0.0106,0.0417,0.0586,0.079,0.0793,0.0845,0.0765,0.0748,0.0775,0.0759,0.0744,0.0724,0.0724,0.0724,0.0724,0,-0.0858,-0.0871,-0.0897,-0.0933,-0.0927,-0.0902,-0.0833,-0.0785,-0.0592,-0.0453,-0.0204,-0.0057,0.0257,0.0439,0.0688,0.0789,0.0792,0.0852,0.0896,0.0647,0.0603,0.0624,0.0613,0.0724,0.0724,0.0724,0.0724,0.0724,-0.089,-0.0931,-0.0966,-0.1012,-0.0971,-0.091,-0.0893,-0.0763,-0.0633,-0.0402,-0.02,0.0047,0.022,0.0537,0.0699,0.0853,0.0857,0.0862,0.0857,0.0853,0.0796,0.0757,0.0897,0.0898,0.0899,0.09,0.09,0,-0.0911,-0.0979,-0.1025,-0.1061,-0.104,-0.0965,-0.0856,-0.0838,-0.0679,-0.0402,-0.0201,0.0051,0.0264,0.0481,0.0707,0.0834,0.0789,0.0854,0.0747,0.0746,0.0746,0.0678,0.0752,0.0752,0.0753,0.0753,0,0,-0.0924,-0.0996,-0.106,-0.1123,-0.1093,-0.0997,-0.0917,-0.0855,-0.0681,-0.048,-0.0233,-0.0035,0.0291,0.0408,0.0543,0.067,0.0678,0.0675,0.0772,0.0626,0.0624,0.0723,0.0615,0,0,0,0,0]}],[{"header":{"parameterUnit":"m.s-1","parameterCategory":2,"la1":30.2991,"la2":30.254,"lo1":-89.0895,"lo2":-89.0444,"dy":0.0017,"dx":0.0017,"nx":28,"ny":28,"refTime":"2025-05-14T21:00:00:Z","depth":"4","parameterNumber":2,"parameterNumberName":"U-component_of_CURRENTS"},"data":[0,0,0,0,0,0,0,0,0,0,0,0,0,0,0,0,0,0,0,0,0,0,0,0,0,0,0,0,0,0,0,0,0,0,0,0,0,0,0,0,0,0,0,0,0,0,0,0,0,0,0,0,0,0,0,0,0,0,-0.1659,-0.166,0,-0.1736,-0.1736,-0.1737,-0.1781,-0.1782,-0.1782,-0.1782,-0.1842,-0.1844,-0.1845,0,0,0,0,0,0,0,0,0,0,0,0,0,-0.1537,-0.1538,-0.1659,-0.166,-0.1661,-0.1736,-0.1737,-0.1737,-0.1781,-0.1782,-0.1782,-0.1782,-0.1842,-0.1844,-0.1845,0,0,0,0,0,0,0,0,0,0,0,0,0,-0.1597,-0.1539,-0.1659,-0.1694,-0.1698,-0.1735,-0.1737,-0.1738,-0.1781,-0.1782,-0.1782,-0.1783,-0.1842,-0.1843,-0.1845,-0.1846,0,0,-0.1851,-0.1852,0,0,0,0,0,0,0,0,-0.1594,-0.1601,-0.1687,-0.1691,-0.1696,-0.1751,-0.1716,-0.1774,-0.1781,-0.1747,-0.1782,-0.1783,-0.1811,-0.1816,-0.1826,-0.1849,-0.1852,-0.1851,-0.1852,-0.1853,-0.1854,0,0,0,0,0,0,0,-0.1589,-0.1598,-0.1687,-0.1689,-0.1694,-0.1701,-0.171,-0.1727,-0.1773,-0.175,-0.1754,-0.1766,-0.1813,-0.1824,-0.1828,-0.1853,-0.1851,-0.1853,-0.1854,-0.1855,-0.1946,-0.1947,0,0,0,0,0,0,-0.1585,-0.1594,-0.1685,-0.169,-0.1647,-0.1703,-0.1713,-0.1731,-0.1774,-0.1782,-0.1765,-0.1768,-0.1821,-0.1826,-0.183,-0.19,-0.1853,-0.1855,-0.1856,-0.1944,-0.1946,-0.1947,0,0,0,0,0,0,-0.1582,-0.1592,-0.1682,-0.1645,-0.1657,-0.1705,-0.1725,-0.1733,-0.1774,-0.1786,-0.1793,-0.1802,-0.1821,-0.1828,-0.1874,-0.19,-0.1856,-0.1858,-0.1943,-0.1945,-0.1947,-0.1998,0,0,0,0,0,0,-0.1578,-0.1591,-0.1615,-0.1645,-0.1659,-0.1727,-0.1725,-0.1734,-0.1779,-0.1784,-0.1819,-0.1824,-0.1822,-0.1871,-0.1876,-0.1902,-0.1859,-0.1941,-0.1944,-0.1946,-0.1995,-0.2001,-0.2007,0,0,0,0,0,-0.1573,-0.1604,-0.1616,-0.1628,-0.1687,-0.1729,-0.1738,-0.177,-0.1781,-0.1808,-0.1831,-0.1824,-0.1889,-0.1874,-0.1879,-0.1907,-0.194,-0.1943,-0.1946,-0.1992,-0.2,-0.2007,0,0,0,0,0,0,-0.1566,-0.1612,-0.1626,-0.1671,-0.1707,-0.1738,-0.1771,-0.1788,-0.1828,-0.184,-0.1845,-0.1851,-0.1899,-0.1898,-0.1881,-0.1939,-0.1912,-0.1916,-0.1945,-0.1953,-0.1959,-0.1953,-0.1861,0,0,0,0,0,-0.1574,-0.161,-0.1649,-0.1687,-0.1709,-0.1744,-0.177,-0.1794,-0.1826,-0.1846,-0.187,-0.1892,-0.1909,-0.1929,-0.1945,-0.1982,-0.1958,-0.2002,-0.2008,-0.2013,-0.2013,-0.2005,-0.201,-0.1957,-0.1957,-0.1957,0,0,-0.1581,-0.1612,-0.1634,-0.1688,-0.172,-0.1761,-0.1762,-0.1814,-0.185,-0.1845,-0.1909,-0.1918,-0.1924,-0.1964,-0.1984,-0.1971,-0.2015,-0.2017,-0.2021,-0.2018,-0.2008,-0.2013,-0.2017,-0.1959,-0.1958,-0.1958,0,0,-0.1605,-0.1643,-0.168,-0.1717,-0.1773,-0.1794,-0.1816,-0.1866,-0.1894,-0.1948,-0.1948,-0.1976,-0.2016,-0.2021,-0.2026,-0.2077,-0.2046,-0.2087,-0.2118,-0.2111,-0.2115,-0.2118,-0.2085,-0.2084,-0.2092,-0.2092,-0.2092,0,-0.1613,-0.1664,-0.1697,-0.1743,-0.1778,-0.1813,-0.1858,-0.1891,-0.195,-0.197,-0.1978,-0.2028,-0.2039,-0.2067,-0.2086,-0.2091,-0.2073,-0.2089,-0.2118,-0.2121,-0.2123,-0.2088,-0.2087,-0.2095,-0.2095,-0.2094,-0.2094,0,-0.1655,-0.171,-0.1737,-0.1802,-0.1843,-0.1892,-0.1937,-0.198,-0.2014,-0.2037,-0.2086,-0.2099,-0.2121,-0.2132,-0.2128,-0.2154,-0.2129,-0.2124,-0.2096,-0.2131,-0.2092,-0.209,-0.2099,-0.2098,-0.2097,-0.2096,0,0,-0.1628,-0.1745,-0.1756,-0.18,-0.1882,-0.1915,-0.1978,-0.2032,-0.2064,-0.2115,-0.2147,-0.2184,-0.2185,-0.2191,-0.2189,-0.2189,-0.2189,-0.217,-0.2169,-0.213,-0.2155,-0.2005,-0.1988,-0.2191,-0.2192,-0.2192,-0.2117,0,-0.165,-0.1741,-0.1795,-0.188,-0.1927,-0.1983,-0.2033,-0.2086,-0.2123,-0.2162,-0.2178,-0.2208,-0.2209,-0.2219,-0.2223,-0.2197,-0.2188,-0.2208,-0.2132,-0.2129,-0.1986,-0.1983,-0.2193,-0.2115,-0.2115,-0.2114,-0.2114,0,-0.166,-0.1724,-0.1812,-0.1918,-0.1944,-0.1998,-0.2071,-0.2123,-0.2176,-0.2204,-0.2234,-0.2242,-0.2256,-0.2248,-0.2222,-0.2236,-0.2202,-0.2178,-0.2174,-0.2013,-0.1975,-0.2075,-0.211,-0.211,-0.211,-0.2111,-0.2111,0,-0.1601,-0.1728,-0.1799,-0.1838,-0.1959,-0.2006,-0.2066,-0.2133,-0.2161,-0.2224,-0.2231,-0.2264,-0.2255,-0.2245,-0.2197,-0.2214,-0.2144,-0.2157,-0.1988,-0.1977,-0.2113,-0.2111,-0.2132,-0.2133,-0.2133,-0.2133,-0.2133,0,-0.1579,-0.1638,-0.1784,-0.1819,-0.1888,-0.1988,-0.2048,-0.2105,-0.2169,-0.2165,-0.2243,-0.2216,-0.2254,-0.2216,-0.2193,-0.2062,-0.2137,-0.1977,-0.1944,-0.2135,-0.2137,-0.211,-0.2109,-0.213,-0.2131,-0.2131,-0.2132,0,-0.1486,-0.1594,-0.1672,-0.1816,-0.1861,-0.1903,-0.202,-0.2036,-0.2128,-0.2117,-0.2131,-0.217,-0.2111,-0.2116,-0.2072,-0.2012,-0.1938,-0.1876,-0.2056,-0.2037,-0.178,-0.1782,-0.1679,-0.1673,-0.1668,-0.1664,-0.166,0,-0.1443,-0.1479,-0.1633,-0.1663,-0.173,-0.1818,-0.1852,-0.1984,-0.1981,-0.2046,-0.1998,-0.1995,-0.1992,-0.181,-0.1854,-0.1787,-0.1772,-0.1733,-0.1781,-0.1753,-0.1732,-0.1743,-0.1752,-0.1652,-0.1651,-0.1649,-0.1648,0,-0.1336,-0.1403,-0.1457,-0.1535,-0.159,-0.164,-0.1701,-0.1695,-0.1797,-0.1891,-0.1809,-0.1783,-0.1704,-0.1682,-0.1634,-0.1597,-0.1765,-0.168,-0.1691,-0.1736,-0.1719,-0.1706,-0.1721,-0.163,-0.1633,-0.1635,-0.1636,0,-0.1235,-0.124,-0.1326,-0.1374,-0.1436,-0.1436,-0.1503,-0.1501,-0.1538,-0.1621,-0.1578,-0.1598,-0.1654,-0.1577,-0.1534,-0.1483,-0.1473,-0.1449,-0.1472,-0.1492,-0.1469,-0.1423,-0.1196,0,0,0,0,0,-0.1129,-0.1128,-0.1158,-0.1208,-0.1258,-0.1302,-0.1377,-0.1442,-0.1541,-0.1426,-0.1508,-0.1434,-0.138,-0.1409,-0.1314,-0.1447,-0.148,-0.1334,-0.1466,-0.1533,-0.1553,-0.1545,0,0,0,0,0,0,-0.1062,-0.1085,-0.1109,-0.1061,-0.1053,-0.1095,-0.114,-0.1209,-0.117,-0.1275,-0.125,-0.1336,-0.1303,-0.139,-0.1276,-0.1282,-0.1334,-0.1366,-0.1361,-0.1521,-0.154,-0.1556,-0.1555,0,0,0,0,0]},{"header":{"parameterUnit":"m.s-1","parameterCategory":2,"la1":30.2991,"la2":30.254,"lo1":-89.0895,"lo2":-89.0444,"dy":0.0017,"dx":0.0017,"nx":28,"ny":28,"refTime":"2025-05-14T21:00:00:Z","depth":"4","parameterNumber":3,"parameterNumberName":"V-component_of_CURRENTS"},"data":[0,0,0,0,0,0,0,0,0,0,0,0,0,0,0,0,0,0,0,0,0,0,0,0,0,0,0,0,0,0,0,0,0,0,0,0,0,0,0,0,0,0,0,0,0,0,0,0,0,0,0,0,0,0,0,0,0,0,-0.0184,-0.0184,0,-0.0114,-0.0113,-0.0113,-0.0078,-0.0079,-0.0079,-0.0079,0.0036,0.0039,0.0042,0,0,0,0,0,0,0,0,0,0,0,0,0,-0.0231,-0.0231,-0.0184,-0.0184,-0.0183,-0.0114,-0.0113,-0.0112,-0.0078,-0.0079,-0.0079,-0.0079,0.0035,0.0038,0.0042,0,0,0,0,0,0,0,0,0,0,0,0,0,-0.019,-0.0231,-0.0184,-0.0158,-0.0155,-0.0115,-0.0113,-0.0112,-0.0078,-0.0079,-0.0079,-0.0079,0.0033,0.0038,0.0042,0.0073,0,0,0.0057,0.0059,0,0,0,0,0,0,0,0,-0.0193,-0.0189,-0.0163,-0.016,-0.0156,-0.0106,-0.0088,-0.0048,-0.0078,-0.0107,-0.0079,-0.0079,-0.0008,0.0,0.0014,0.0079,0.0084,0.0057,0.006,0.0062,0.0063,0,0,0,0,0,0,0,-0.0196,-0.0191,-0.0156,-0.0162,-0.0158,-0.013,-0.0125,-0.008,-0.0056,-0.0104,-0.0102,-0.0095,-0.0006,0.0009,0.0017,0.0085,0.0057,0.0061,0.0064,0.0066,0.0187,0.0187,0,0,0,0,0,0,-0.0209,-0.0194,-0.0158,-0.0154,-0.0176,-0.0129,-0.0123,-0.0121,-0.0058,-0.0049,-0.0095,-0.0094,0.0001,0.0011,0.0021,0.0063,0.0062,0.0066,0.0069,0.0186,0.0187,0.0187,0,0,0,0,0,0,-0.021,-0.0206,-0.0161,-0.0173,-0.0165,-0.0129,-0.0126,-0.012,-0.0107,-0.0051,-0.0041,-0.0089,0.0002,0.0014,0.0058,0.0067,0.0068,0.0073,0.0186,0.0186,0.0187,0.0146,0,0,0,0,0,0,-0.0212,-0.0207,-0.0213,-0.0174,-0.0165,-0.014,-0.0126,-0.0119,-0.0102,-0.01,-0.0042,-0.0032,0.0002,0.0051,0.0063,0.0074,0.0076,0.0185,0.0186,0.0187,0.0146,0.0145,0.0143,0,0,0,0,0,-0.0214,-0.0221,-0.0213,-0.0209,-0.0173,-0.014,-0.0133,-0.0107,-0.0102,-0.0096,-0.0059,-0.0034,0.0064,0.0055,0.0069,0.0081,0.0185,0.0186,0.0187,0.0147,0.0145,0.0143,0,0,0,0,0,0,-0.0245,-0.0217,-0.0208,-0.0207,-0.0178,-0.0135,-0.013,-0.011,-0.0076,-0.0076,-0.0026,-0.0013,0.0027,0.0061,0.0049,0.0118,0.0128,0.0132,0.0094,0.0092,0.0091,0.0076,0.008,0,0,0,0,0,-0.0255,-0.0255,-0.0218,-0.0218,-0.0206,-0.0169,-0.0155,-0.0135,-0.0099,-0.0085,-0.0044,0.0001,0.0043,0.007,0.0111,0.0152,0.0176,0.0169,0.0168,0.0166,0.0164,0.021,0.0212,0.019,0.019,0.019,0,0,-0.0268,-0.0253,-0.0253,-0.0225,-0.0203,-0.0184,-0.0161,-0.0142,-0.0123,-0.0076,-0.0042,-0.0004,0.0051,0.0093,0.0115,0.0123,0.0183,0.0167,0.0165,0.0165,0.0211,0.0213,0.0215,0.0191,0.0191,0.019,0,0,-0.0294,-0.028,-0.0288,-0.0263,-0.0233,-0.0202,-0.0199,-0.0156,-0.0134,-0.0095,-0.006,-0.0018,0.0048,0.009,0.012,0.0136,0.0168,0.0149,0.0138,0.0182,0.0184,0.0186,0.0204,0.0208,0.0154,0.0154,0.0153,0,-0.0313,-0.0316,-0.0283,-0.0278,-0.0263,-0.0214,-0.021,-0.0173,-0.0121,-0.0103,-0.0091,0.0002,0.0048,0.0103,0.0109,0.0133,0.0152,0.0138,0.0179,0.0181,0.0184,0.0202,0.0207,0.0152,0.0152,0.0152,0.0152,0,-0.0337,-0.0338,-0.0338,-0.0315,-0.029,-0.028,-0.0225,-0.0197,-0.0165,-0.0129,-0.0077,-0.0014,0.0039,0.0064,0.0095,0.014,0.0143,0.0165,0.0179,0.0184,0.0203,0.0209,0.0149,0.015,0.015,0.0151,0,0,-0.0386,-0.0364,-0.0365,-0.0368,-0.0312,-0.03,-0.0257,-0.0212,-0.0196,-0.0133,-0.011,-0.0025,0.0002,0.0037,0.0083,0.0129,0.0165,0.0152,0.0155,0.0161,0.0242,0.0201,0.0204,0.0192,0.0193,0.0194,0.0241,0,-0.0419,-0.0438,-0.0402,-0.0405,-0.0409,-0.0344,-0.0312,-0.026,-0.021,-0.0172,-0.0096,-0.0056,-0.0005,0.0013,0.007,0.0138,0.0181,0.0149,0.0245,0.0247,0.0204,0.021,0.0198,0.0246,0.0247,0.0248,0.0249,0,-0.0452,-0.0464,-0.0487,-0.0467,-0.0461,-0.0448,-0.0399,-0.0362,-0.028,-0.0242,-0.0178,-0.012,-0.0042,-0.0005,0.0122,0.0097,0.0164,0.0221,0.0224,0.0206,0.0218,0.0247,0.026,0.0259,0.0258,0.0258,0.0257,0,-0.0518,-0.0518,-0.0548,-0.054,-0.0505,-0.0501,-0.0472,-0.0396,-0.0375,-0.0293,-0.0279,-0.0167,-0.0133,-0.0016,0.0095,0.0114,0.0217,0.0262,0.029,0.0287,0.0327,0.0325,0.035,0.035,0.035,0.035,0.035,0,-0.0564,-0.0586,-0.0592,-0.0608,-0.0641,-0.0579,-0.0586,-0.0534,-0.0471,-0.0467,-0.0335,-0.0315,-0.0135,-0.0053,0.0069,0.0177,0.0199,0.0283,0.03,0.0306,0.0301,0.033,0.0327,0.0352,0.0351,0.0351,0.0351,0,-0.0619,-0.0624,-0.0667,-0.0669,-0.0677,-0.07,-0.0679,-0.0681,-0.0601,-0.0594,-0.0575,-0.0434,-0.0312,-0.0148,0.0026,0.0118,0.0243,0.0274,0.0235,0.0249,0.0295,0.029,0.0335,0.0334,0.0333,0.0333,0.0332,0,-0.0644,-0.0676,-0.0734,-0.0781,-0.0791,-0.0816,-0.0836,-0.0765,-0.0765,-0.0678,-0.0692,-0.0562,-0.046,-0.0237,-0.0059,0.0167,0.0204,0.0258,0.0322,0.0283,0.0296,0.0291,0.0287,0.0331,0.0331,0.033,0.033,0,-0.069,-0.0722,-0.0765,-0.087,-0.0925,-0.0968,-0.099,-0.0991,-0.0916,-0.087,-0.0771,-0.0614,-0.0484,-0.0261,-0.0103,0.0064,0.0225,0.0251,0.0255,0.0317,0.0279,0.0291,0.0288,0.0327,0.0328,0.0328,0.0328,0,-0.0725,-0.078,-0.0853,-0.0935,-0.1024,-0.1078,-0.1078,-0.1057,-0.1024,-0.0908,-0.0898,-0.0693,-0.0573,-0.032,-0.0179,-0.0016,0.0058,0.0123,0.0136,0.0141,0.0078,0.0001,-0.0026,0,0,0,0,0,-0.074,-0.0807,-0.0906,-0.0994,-0.1085,-0.1119,-0.116,-0.1141,-0.1089,-0.1032,-0.0941,-0.0803,-0.0527,-0.0402,-0.024,-0.0196,0.0064,-0.0005,0.0139,0.0312,0.0315,0.0272,0,0,0,0,0,0,-0.0757,-0.085,-0.0907,-0.1019,-0.1082,-0.1162,-0.1185,-0.1156,-0.1095,-0.1023,-0.087,-0.0773,-0.0504,-0.0613,-0.0236,-0.0188,-0.0078,0.013,0.0133,0.031,0.0313,0.0315,0.0272,0,0,0,0,0]}]]